Weather History for Watertown, WI

Change the Weather History Date:

Wednesday, October 9, 2013

  Actual Average Record
Temperature  
Mean Temperature 58 °F -  
Max Temperature 72 °F 62 °F 84 °F (2010)
Min Temperature 44 °F 42 °F 26 °F (1987)
Degree Days  
Heating Degree Days 7    
Growing Degree Days 8 (Base 50)    
Moisture  
Dew Point 46 °F    
Average Humidity 68    
Maximum Humidity 93    
Minimum Humidity 33    
Precipitation  
Precipitation 0.03 in - - ()
Sea Level Pressure  
Sea Level Pressure 30.17 in    
Wind  
Wind Speed 4 mph (SSE)    
Max Wind Speed 13 mph    
Max Gust Speed 17 mph    
Visibility 10 miles    
Events      
Averages and records for this station are not official NWS values.
T = Trace of Precipitation, MM = Missing Value Source: NWS Daily Summary

Daily Weather History Graph

Daily Weather History Graph

Search for Another Location

Airport:

Trip Planner

Search our weather history database for the weather conditions in past years. The results will help you decide how hot, cold, wet, or windy it might be!

Date:

Astronomy

Oct. 09, 2013 Rise Set
Actual Time 7:01 AM CDT 6:21 PM CDT
Civil Twilight 6:33 AM CDT 6:50 PM CDT
Nautical Twilight 6:00 AM CDT 7:22 PM CDT
Astronomical Twilight 5:27 AM CDT 7:55 PM CDT
Moon 12:03 PM CDT (10/9) 9:49 PM CDT (10/9)
Length of Visible Light 12h 16m
Length of Day
11h 19m
Waxing Crescent, 25% of the Moon is Illuminated
Oct 9
Waxing Crescent
Oct 11
First Quarter
Oct 18
Full
Oct 26
Last Quarter
Nov 3
New

Hourly Weather History & Observations

Time (CDT) Temp. Dew Point Humidity Pressure Visibility Wind Dir Wind Speed Gust Speed Precip Events Conditions
12:15 AM 53.4 °F 46.6 °F 78% 30.13 in 10.0 mi SSE 4.6 mph - N/A   Clear
12:35 AM 53.6 °F 46.9 °F 78% 30.13 in 10.0 mi SE 3.5 mph - N/A   Clear
12:55 AM 53.6 °F 46.6 °F 77% 30.13 in 10.0 mi Calm Calm - N/A   Clear
1:15 AM 52.7 °F 46.4 °F 79% 30.14 in 10.0 mi Calm Calm - N/A   Clear
1:35 AM 50.9 °F 45.9 °F 83% 30.14 in 10.0 mi Calm Calm - N/A   Clear
1:55 AM 51.8 °F 45.9 °F 80% 30.14 in 10.0 mi Calm Calm - N/A   Clear
2:15 AM 50.9 °F 45.5 °F 82% 30.14 in 10.0 mi Calm Calm - N/A   Clear
2:35 AM 51.8 °F 45.7 °F 80% 30.15 in 10.0 mi Calm Calm - N/A   Clear
2:55 AM 51.8 °F 45.5 °F 79% 30.15 in 10.0 mi SE 3.5 mph - N/A   Clear
3:15 AM 48.4 °F 44.2 °F 86% 30.15 in 10.0 mi Calm Calm - N/A   Clear
3:35 AM 47.5 °F 43.7 °F 87% 30.15 in 10.0 mi Calm Calm - N/A   Clear
3:55 AM 49.8 °F 45.5 °F 85% 30.16 in 10.0 mi Calm Calm - N/A   Clear
4:15 AM 46.2 °F 43.5 °F 90% 30.17 in 10.0 mi Calm Calm - N/A   Clear
4:35 AM 48.4 °F 44.4 °F 86% 30.18 in 10.0 mi Calm Calm - N/A   Clear
4:55 AM 46.4 °F 43.3 °F 89% 30.18 in 10.0 mi Calm Calm - N/A   Clear
5:15 AM 44.4 °F 42.4 °F 93% 30.19 in 10.0 mi Calm Calm - N/A   Clear
5:35 AM 46.9 °F 43.9 °F 89% 30.19 in 10.0 mi Calm Calm - N/A   Clear
5:55 AM 46.9 °F 44.6 °F 92% 30.20 in 10.0 mi Calm Calm - N/A   Clear
6:15 AM 47.1 °F 44.2 °F 90% 30.20 in 10.0 mi Calm Calm - N/A   Clear
6:35 AM 48.4 °F 44.8 °F 87% 30.20 in 10.0 mi Calm Calm - N/A   Clear
6:55 AM 49.5 °F 45.5 °F 86% 30.21 in 10.0 mi South 3.5 mph - N/A   Clear
7:15 AM 49.8 °F 45.7 °F 86% 30.21 in 10.0 mi South 4.6 mph - N/A   Clear
7:35 AM 50.4 °F 45.9 °F 85% 30.21 in 10.0 mi South 4.6 mph - N/A   Clear
7:55 AM 51.6 °F 46.6 °F 83% 30.21 in 10.0 mi South 3.5 mph - N/A   Clear
8:15 AM 53.1 °F 47.5 °F 81% 30.22 in 10.0 mi South 4.6 mph - N/A   Clear
8:35 AM 54.5 °F 48.2 °F 79% 30.22 in 10.0 mi South 4.6 mph - N/A   Clear
8:55 AM 56.3 °F 48.9 °F 76% 30.22 in 10.0 mi South 4.6 mph - N/A   Clear
9:15 AM 58.1 °F 49.3 °F 72% 30.22 in 10.0 mi South 6.9 mph - N/A   Clear
9:35 AM 59.7 °F 49.5 °F 69% 30.22 in 10.0 mi South 6.9 mph - N/A   Clear
9:55 AM 61.0 °F 50.2 °F 68% 30.22 in 10.0 mi South 6.9 mph - N/A   Clear
10:15 AM 62.8 °F 50.2 °F 63% 30.22 in 10.0 mi South 6.9 mph - N/A   Clear
10:35 AM 64.2 °F 50.4 °F 61% 30.23 in 10.0 mi South 9.2 mph - 0.03 in   Clear
10:55 AM 65.5 °F 50.4 °F 58% 30.22 in 10.0 mi South 8.1 mph - 0.03 in   Clear
11:15 AM 66.6 °F 49.6 °F 54% 30.22 in 10.0 mi South 8.1 mph - N/A   Clear
11:35 AM 67.6 °F 49.3 °F 52% 30.21 in 10.0 mi South 12.7 mph - N/A   Clear
11:55 AM 68.2 °F 49.1 °F 50% 30.21 in 10.0 mi SSW 9.2 mph - N/A   Clear
12:15 PM 68.9 °F 48.6 °F 48% 30.21 in 10.0 mi SSE 9.2 mph - N/A   Clear
12:35 PM 69.3 °F 49.1 °F 49% 30.20 in 10.0 mi South 8.1 mph - N/A   Clear
12:55 PM 70.3 °F 48.6 °F 46% 30.20 in 10.0 mi South 9.2 mph - N/A   Clear
1:15 PM 70.2 °F 46.0 °F 42% 30.19 in 10.0 mi South 5.8 mph - N/A   Clear
1:35 PM 71.4 °F 45.5 °F 39% 30.18 in 10.0 mi SSE 8.1 mph - N/A   Clear
1:55 PM 71.4 °F 46.2 °F 41% 30.17 in 10.0 mi South 6.9 mph - N/A   Clear
2:15 PM 71.4 °F 45.9 °F 40% 30.16 in 10.0 mi SSE 8.1 mph - N/A   Clear
2:35 PM 71.8 °F 44.1 °F 37% 30.16 in 10.0 mi SE 4.6 mph - N/A   Clear
2:55 PM 72.3 °F 41.7 °F 33% 30.16 in 10.0 mi South 5.8 mph 17.3 mph N/A   Clear
3:15 PM 72.0 °F 41.9 °F 34% 30.15 in 10.0 mi SSE 9.2 mph - N/A   Clear
3:55 PM 72.1 °F 42.6 °F 34% 30.14 in 10.0 mi South 8.1 mph - N/A   Clear
4:15 PM 71.6 °F 41.2 °F 33% 30.14 in 10.0 mi SSE 6.9 mph - N/A   Clear
4:35 PM 71.1 °F 41.2 °F 34% 30.14 in 10.0 mi SSE 6.9 mph - N/A   Clear
4:55 PM 70.0 °F 42.6 °F 37% 30.13 in 10.0 mi SE 9.2 mph - N/A   Clear
5:15 PM 68.0 °F 43.9 °F 42% 30.13 in 10.0 mi ESE 3.5 mph - N/A   Clear
5:35 PM 67.5 °F 43.9 °F 43% 30.13 in 10.0 mi SE 4.6 mph - N/A   Clear
5:55 PM 65.5 °F 44.4 °F 46% 30.13 in 10.0 mi ESE 4.6 mph - N/A   Clear
6:15 PM 63.0 °F 44.1 °F 50% 30.13 in 10.0 mi ESE 4.6 mph - N/A   Clear
6:55 PM 59.4 °F 46.0 °F 61% 30.14 in 10.0 mi ESE 6.9 mph - N/A   Clear
7:15 PM 58.6 °F 45.9 °F 63% 30.15 in 10.0 mi ESE 6.9 mph - N/A   Clear
7:35 PM 57.2 °F 45.9 °F 66% 30.15 in 10.0 mi ESE 6.9 mph - N/A   Clear
7:55 PM 55.8 °F 45.5 °F 68% 30.16 in 10.0 mi ESE 5.8 mph - N/A   Clear
8:15 PM 53.1 °F 45.5 °F 75% 30.16 in 10.0 mi East 4.6 mph - N/A   Clear
8:35 PM 52.9 °F 45.7 °F 77% 30.16 in 10.0 mi ESE 4.6 mph - N/A   Clear
8:55 PM 52.7 °F 45.7 °F 77% 30.16 in 10.0 mi ESE 4.6 mph - N/A   Clear
9:15 PM 50.9 °F 45.5 °F 82% 30.16 in 10.0 mi Calm Calm - N/A   Clear
9:35 PM 51.8 °F 45.7 °F 80% 30.16 in 10.0 mi ESE 5.8 mph - N/A   Clear
9:55 PM 51.8 °F 45.7 °F 80% 30.16 in 10.0 mi ESE 3.5 mph - N/A   Clear
10:15 PM 51.4 °F 45.7 °F 81% 30.16 in 10.0 mi SE 4.6 mph - N/A   Clear
10:35 PM 51.3 °F 45.5 °F 81% 30.16 in 10.0 mi SE 4.6 mph - N/A   Clear
10:55 PM 50.0 °F 45.0 °F 83% 30.16 in 10.0 mi Calm Calm - N/A   Clear
11:15 PM 49.5 °F 44.6 °F 83% 30.15 in 10.0 mi Calm Calm - N/A   Clear
11:55 PM 47.8 °F 44.2 °F 87% 30.16 in 10.0 mi Calm Calm - N/A   Clear